Change the Weather History Date:

Monday, September 1, 2014

  Actual Average Record
Temperature  
Mean Temperature 66 °F 61 °F  
Max Temperature 72 °F 70 °F 82 °F (1952)
Min Temperature 59 °F 51 °F 39 °F (1960)
Degree Days  
Heating Degree Days 0 4  
Month to date heating degree days 0 4  
Cooling Degree Days 1 0  
Month to date cooling degree days 1 0  
Year to date cooling degree days 116 40  
Growing Degree Days 15 (Base 50)    
Moisture  
Dew Point 53 °F    
Average Humidity 66    
Maximum Humidity 78    
Minimum Humidity 53    
Precipitation  
Precipitation 0.00 in 0.05 in 2.75 in (1983)
Month to date precipitation 0.00 0.05  
Year to date precipitation 19.77 20.40  
Sea Level Pressure  
Sea Level Pressure 30.05 in    
Wind  
Wind Speed 6 mph (South)    
Max Wind Speed 14 mph    
Max Gust Speed 18 mph    
Visibility 10 miles    
Events      
T = Trace of Precipitation, MM = Missing Value Source: NWS Daily Summary

Daily Weather History Graph

Daily Weather History Graph

Search for Another Location

Airport or City:

Trip Planner

Search our weather history database for the weather conditions in past years. The results will help you decide how hot, cold, wet, or windy it might be!

Date:

Astronomy

Sep. 01, 2014 Rise Set
Actual Time 6:27 AM PDT 7:52 PM PDT
Civil Twilight 5:54 AM PDT 8:24 PM PDT
Nautical Twilight 5:14 AM PDT 9:04 PM PDT
Astronomical Twilight 4:31 AM PDT 9:47 PM PDT
Moon 1:52 PM PDT (9/1) 11:22 PM PDT (9/1)
Length of Visible Light 14h 30m
Length of Day
13h 24m
Waxing Crescent, 43% of the Moon is Illuminated
Sep 1
Waxing Crescent
Sep 2
First Quarter
Sep 8
Full
Sep 15
Last Quarter
Sep 23
New

Hourly Weather History & Observations

Time (PDT) Temp. Dew Point Humidity Pressure Visibility Wind Dir Wind Speed Gust Speed Precip Events Conditions
12:53 AM 63.0 °F 51.1 °F 65% 30.06 in 10.0 mi South 4.6 mph - N/A   Overcast
1:53 AM 61.0 °F 54.0 °F 78% 30.06 in 10.0 mi South 4.6 mph - N/A   Overcast
2:53 AM 60.1 °F 53.1 °F 78% 30.06 in 10.0 mi South 4.6 mph - N/A   Mostly Cloudy
3:53 AM 61.0 °F 52.0 °F 72% 30.06 in 10.0 mi South 4.6 mph - N/A   Overcast
4:53 AM 60.1 °F 54.0 °F 80% 30.06 in 10.0 mi South 5.8 mph - N/A   Overcast
5:53 AM 61.0 °F 52.0 °F 72% 30.06 in 10.0 mi South 13.8 mph 18.4 mph N/A   Overcast
6:53 AM 60.1 °F 52.0 °F 75% 30.08 in 10.0 mi South 8.1 mph - N/A   Mostly Cloudy
7:53 AM 60.8 °F 53.6 °F 77% 30.07 in 10.0 mi SSE 8.1 mph - N/A   Partly Cloudy
8:53 AM 62.1 °F 52.0 °F 70% 30.09 in 10.0 mi South 9.2 mph - N/A   Overcast
9:53 AM 63.0 °F 53.1 °F 70% 30.09 in 10.0 mi South 11.5 mph - N/A   Overcast
10:53 AM 64.9 °F 54.0 °F 68% 30.09 in 10.0 mi South 8.1 mph 17.3 mph N/A   Mostly Cloudy
11:53 AM 66.0 °F 54.0 °F 65% 30.09 in 10.0 mi South 10.4 mph 17.3 mph N/A   Clear
12:53 PM 66.9 °F 53.1 °F 61% 30.07 in 10.0 mi South 10.4 mph 16.1 mph N/A   Clear
1:53 PM 69.1 °F 52.0 °F 54% 30.07 in 10.0 mi South 9.2 mph - N/A   Mostly Cloudy
2:53 PM 70.0 °F 51.1 °F 51% 30.06 in 10.0 mi South 9.2 mph - N/A   Overcast
3:53 PM 70.0 °F 52.0 °F 53% 30.05 in 10.0 mi South 5.8 mph - N/A   Overcast
4:53 PM 69.1 °F 54.0 °F 58% 30.04 in 10.0 mi South 3.5 mph - N/A   Overcast
5:53 PM 69.1 °F 53.1 °F 57% 30.04 in 10.0 mi Calm Calm - N/A   Overcast
6:53 PM 66.9 °F 53.1 °F 61% 30.03 in 10.0 mi Calm Calm - N/A   Overcast
7:53 PM 64.9 °F 54.0 °F 68% 30.01 in 10.0 mi Calm Calm - N/A   Overcast
8:53 PM 64.0 °F 55.0 °F 73% 30.01 in 10.0 mi Calm Calm - N/A   Overcast
9:53 PM 62.1 °F 54.0 °F 75% 30.01 in 10.0 mi SSE 3.5 mph - N/A   Overcast
10:53 PM 62.1 °F 55.0 °F 78% 29.99 in 10.0 mi Calm Calm - N/A   Overcast
11:53 PM 63.0 °F 55.0 °F 75% 29.99 in 10.0 mi South 4.6 mph - N/A   Overcast